Time,TemperatureF,DewpointF,PressureIn,WindDirection,WindDirectionDegrees,WindSpeedMPH,WindSpeedGustMPH,Humidity,HourlyPrecipIn,Conditions,Clouds,dailyrainin,SoftwareType,DateUTC
2013-02-10 00:08:00,38.4,35.0,30.15,NE,44,3.0,4.0,87,0.00,,,0.00,weatherlink.com 1.10,2013-02-09 23:08:00,
2013-02-10 00:23:00,39.5,35.0,30.15,NE,46,8.0,8.0,85,0.00,,,0.00,weatherlink.com 1.10,2013-02-09 23:23:00,
2013-02-10 00:38:00,40.7,36.0,30.15,NNE,20,7.0,10.0,82,0.00,,,0.00,weatherlink.com 1.10,2013-02-09 23:38:00,
2013-02-10 00:53:00,40.6,36.0,30.15,NNE,22,7.0,9.0,82,0.00,,,0.00,weatherlink.com 1.10,2013-02-09 23:53:00,
2013-02-10 01:08:00,40.8,36.0,30.14,NNE,13,6.0,10.0,83,0.00,,,0.00,weatherlink.com 1.10,2013-02-10 00:08:00,
2013-02-10 01:23:00,41.1,36.0,30.14,NNE,24,8.0,11.0,82,0.00,,,0.00,weatherlink.com 1.10,2013-02-10 00:23:00,
2013-02-10 01:38:00,41.3,36.0,30.14,ENE,57,6.0,8.0,82,0.00,,,0.00,weatherlink.com 1.10,2013-02-10 00:38:00,
2013-02-10 01:53:00,41.3,36.0,30.14,NNE,20,6.0,8.0,82,0.00,,,0.00,weatherlink.com 1.10,2013-02-10 00:53:00,
2013-02-10 02:08:00,41.2,36.0,30.13,NNE,19,5.0,8.0,83,0.00,,,0.00,weatherlink.com 1.10,2013-02-10 01:08:00,
2013-02-10 02:23:00,42.0,37.0,30.13,NNE,30,8.0,10.0,82,0.00,,,0.00,weatherlink.com 1.10,2013-02-10 01:23:00,
2013-02-10 02:38:00,42.5,37.0,30.13,NNE,33,6.0,9.0,81,0.00,,,0.00,weatherlink.com 1.10,2013-02-10 01:38:00,
2013-02-10 02:53:00,42.2,37.0,30.12,NNE,20,7.0,8.0,82,0.00,,,0.00,weatherlink.com 1.10,2013-02-10 01:53:00,
2013-02-10 03:08:00,42.7,38.0,30.12,NNE,20,8.0,9.0,82,0.00,,,0.00,weatherlink.com 1.10,2013-02-10 02:08:00,
2013-02-10 03:23:00,42.9,38.0,30.11,NNE,18,6.0,9.0,83,0.00,,,0.00,weatherlink.com 1.10,2013-02-10 02:23:00,
2013-02-10 03:38:00,42.7,38.0,30.11,NE,38,6.0,8.0,82,0.00,,,0.00,weatherlink.com 1.10,2013-02-10 02:38:00,
2013-02-10 03:53:00,42.3,38.0,30.10,North,8,4.0,7.0,84,0.00,,,0.00,weatherlink.com 1.10,2013-02-10 02:53:00,
2013-02-10 04:09:00,42.5,38.0,30.09,NNE,20,4.0,9.0,85,0.00,,,0.00,weatherlink.com 1.10,2013-02-10 03:09:00,
2013-02-10 04:24:00,43.1,39.0,30.08,NNE,20,8.0,10.0,84,0.00,,,0.00,weatherlink.com 1.10,2013-02-10 03:24:00,
2013-02-10 04:39:00,43.5,39.0,30.08,NNE,30,5.0,8.0,83,0.00,,,0.00,weatherlink.com 1.10,2013-02-10 03:39:00,
2013-02-10 04:54:00,43.6,39.0,30.09,ENE,70,2.0,6.0,83,0.00,,,0.00,weatherlink.com 1.10,2013-02-10 03:54:00,
2013-02-10 05:09:00,43.1,39.0,30.09,NE,48,2.0,2.0,85,0.00,,,0.00,weatherlink.com 1.10,2013-02-10 04:09:00,
2013-02-10 05:24:00,42.1,37.0,30.09,SW,226,3.0,4.0,81,0.00,,,0.00,weatherlink.com 1.10,2013-02-10 04:24:00,
2013-02-10 05:39:00,42.5,39.0,30.09,NNW,332,2.0,3.0,86,0.00,,,0.00,weatherlink.com 1.10,2013-02-10 04:39:00,
2013-02-10 05:54:00,45.3,40.0,30.08,NE,44,5.0,8.0,83,0.00,,,0.00,weatherlink.com 1.10,2013-02-10 04:54:00,
2013-02-10 06:09:00,47.0,40.0,30.08,ESE,103,9.0,9.0,78,0.00,,,0.00,weatherlink.com 1.10,2013-02-10 05:09:00,
2013-02-10 06:24:00,47.2,40.0,30.08,ENE,58,5.0,8.0,76,0.00,,,0.00,weatherlink.com 1.10,2013-02-10 05:24:00,
2013-02-10 06:39:00,47.6,40.0,30.07,ENE,70,8.0,10.0,75,0.00,,,0.00,weatherlink.com 1.10,2013-02-10 05:39:00,
2013-02-10 06:54:00,48.3,40.0,30.07,ENE,66,7.0,14.0,72,0.00,,,0.00,weatherlink.com 1.10,2013-02-10 05:54:00,
2013-02-10 07:09:00,47.5,40.0,30.07,East,88,6.0,7.0,74,0.00,,,0.00,weatherlink.com 1.10,2013-02-10 06:09:00,
2013-02-10 07:24:00,46.8,39.0,30.07,North,5,4.0,7.0,74,0.00,,,0.00,weatherlink.com 1.10,2013-02-10 06:24:00,
2013-02-10 07:39:00,44.5,39.0,30.08,ENE,67,1.0,8.0,80,0.00,,,0.00,weatherlink.com 1.10,2013-02-10 06:39:00,
2013-02-10 07:54:00,45.9,39.0,30.08,NE,41,4.0,6.0,76,0.00,,,0.00,weatherlink.com 1.10,2013-02-10 06:54:00,
2013-02-10 08:09:00,47.4,39.0,30.08,ENE,67,6.0,9.0,73,0.00,,,0.00,weatherlink.com 1.10,2013-02-10 07:09:00,
2013-02-10 08:24:00,48.1,40.0,30.08,East,81,6.0,8.0,73,0.00,,,0.00,weatherlink.com 1.10,2013-02-10 07:24:00,
2013-02-10 08:39:00,49.0,40.0,30.09,ENE,73,4.0,10.0,72,0.00,,,0.00,weatherlink.com 1.10,2013-02-10 07:39:00,
2013-02-10 08:54:00,48.4,40.0,30.09,NE,46,6.0,7.0,74,0.00,,,0.00,weatherlink.com 1.10,2013-02-10 07:54:00,
2013-02-10 09:09:00,49.2,41.0,30.08,ENE,74,6.0,8.0,74,0.00,,,0.00,weatherlink.com 1.10,2013-02-10 08:09:00,
2013-02-10 09:24:00,50.2,42.0,30.08,NE,54,6.0,10.0,73,0.00,,,0.00,weatherlink.com 1.10,2013-02-10 08:24:00,
2013-02-10 09:39:00,50.7,42.0,30.08,ENE,60,9.0,11.0,72,0.00,,,0.00,weatherlink.com 1.10,2013-02-10 08:39:00,
2013-02-10 09:54:00,51.8,42.0,30.08,East,84,8.0,14.0,69,0.00,,,0.00,weatherlink.com 1.10,2013-02-10 08:54:00,
2013-02-10 10:09:00,53.2,41.0,30.08,East,85,15.0,18.0,64,0.00,,,0.00,weatherlink.com 1.10,2013-02-10 09:09:00,
2013-02-10 10:24:00,54.0,41.0,30.08,ESE,110,11.0,16.0,61,0.00,,,0.00,weatherlink.com 1.10,2013-02-10 09:24:00,
2013-02-10 10:40:00,54.5,39.0,30.07,East,82,19.0,20.0,57,0.00,,,0.00,weatherlink.com 1.10,2013-02-10 09:40:00,
2013-02-10 10:55:00,55.2,40.0,30.08,East,82,10.0,15.0,56,0.00,,,0.00,weatherlink.com 1.10,2013-02-10 09:55:00,
2013-02-10 11:10:00,55.7,39.0,30.07,ENE,75,10.0,16.0,54,0.00,,,0.00,weatherlink.com 1.10,2013-02-10 10:10:00,
2013-02-10 11:25:00,55.7,40.0,30.07,East,79,8.0,19.0,57,0.00,,,0.00,weatherlink.com 1.10,2013-02-10 10:25:00,
2013-02-10 11:40:00,56.2,39.0,30.07,East,81,19.0,21.0,53,0.00,,,0.00,weatherlink.com 1.10,2013-02-10 10:40:00,
2013-02-10 11:55:00,56.4,39.0,30.06,ENE,70,12.0,20.0,52,0.00,,,0.00,weatherlink.com 1.10,2013-02-10 10:55:00,
2013-02-10 12:10:00,56.7,39.0,30.06,East,101,16.0,20.0,51,0.00,,,0.00,weatherlink.com 1.10,2013-02-10 11:10:00,
2013-02-10 12:25:00,57.3,39.0,30.05,East,89,16.0,19.0,51,0.00,,,0.00,weatherlink.com 1.10,2013-02-10 11:25:00,
2013-02-10 12:40:00,57.6,38.0,30.04,East,80,10.0,24.0,48,0.00,,,0.00,weatherlink.com 1.10,2013-02-10 11:40:00,
2013-02-10 12:55:00,57.5,40.0,30.03,East,89,19.0,20.0,53,0.00,,,0.00,weatherlink.com 1.10,2013-02-10 11:55:00,
2013-02-10 13:10:00,58.1,40.0,30.02,ENE,67,20.0,21.0,52,0.00,,,0.00,weatherlink.com 1.10,2013-02-10 12:10:00,
2013-02-10 13:25:00,57.1,42.0,30.01,East,85,17.0,23.0,57,0.00,,,0.00,weatherlink.com 1.10,2013-02-10 12:25:00,
2013-02-10 13:40:00,56.6,42.0,30.01,ENE,77,19.0,24.0,59,0.00,,,0.00,weatherlink.com 1.10,2013-02-10 12:40:00,
2013-02-10 13:55:00,57.3,40.0,30.00,NE,51,20.0,23.0,53,0.00,,,0.00,weatherlink.com 1.10,2013-02-10 12:55:00,
2013-02-10 14:10:00,57.2,42.0,30.00,NE,34,15.0,21.0,57,0.00,,,0.00,weatherlink.com 1.10,2013-02-10 13:10:00,
2013-02-10 14:25:00,57.6,42.0,29.99,ENE,69,12.0,23.0,56,0.00,,,0.00,weatherlink.com 1.10,2013-02-10 13:25:00,
2013-02-10 14:40:00,57.4,44.0,29.98,NE,46,12.0,22.0,61,0.00,,,0.00,weatherlink.com 1.10,2013-02-10 13:40:00,
2013-02-10 14:55:00,56.9,43.0,29.98,ENE,77,11.0,27.0,61,0.00,,,0.00,weatherlink.com 1.10,2013-02-10 13:55:00,
2013-02-10 15:09:00,56.9,42.0,29.97,ENE,60,15.0,26.0,59,0.00,,,0.00,weatherlink.com 1.10,2013-02-10 14:09:00,
2013-02-10 15:24:00,56.6,43.0,29.96,ENE,77,25.0,26.0,60,0.00,,,0.00,weatherlink.com 1.10,2013-02-10 14:24:00,
2013-02-10 15:39:00,56.3,41.0,29.96,ENE,60,21.0,27.0,57,0.00,,,0.00,weatherlink.com 1.10,2013-02-10 14:39:00,
2013-02-10 15:55:00,57.0,39.0,29.95,East,86,14.0,26.0,52,0.00,,,0.00,weatherlink.com 1.10,2013-02-10 14:55:00,
2013-02-10 16:10:00,57.3,41.0,29.94,ENE,70,11.0,21.0,54,0.00,,,0.00,weatherlink.com 1.10,2013-02-10 15:10:00,
2013-02-10 16:25:00,57.1,39.0,29.94,ENE,57,24.0,26.0,52,0.00,,,0.00,weatherlink.com 1.10,2013-02-10 15:25:00,
2013-02-10 16:40:00,56.9,42.0,29.93,NE,49,22.0,24.0,58,0.00,,,0.00,weatherlink.com 1.10,2013-02-10 15:40:00,
2013-02-10 16:56:00,55.8,41.0,29.92,ENE,60,15.0,28.0,59,0.00,,,0.00,weatherlink.com 1.10,2013-02-10 15:56:00,
2013-02-10 17:11:00,55.5,42.0,29.92,NE,44,18.0,26.0,61,0.00,,,0.00,weatherlink.com 1.10,2013-02-10 16:11:00,
2013-02-10 17:26:00,55.7,42.0,29.91,NE,44,11.0,24.0,61,0.00,,,0.00,weatherlink.com 1.10,2013-02-10 16:26:00,
2013-02-10 17:40:00,55.3,41.0,29.91,NE,39,19.0,27.0,59,0.00,,,0.00,weatherlink.com 1.10,2013-02-10 16:40:00,
2013-02-10 17:55:00,54.5,41.0,29.90,NE,37,23.0,28.0,61,0.00,,,0.00,weatherlink.com 1.10,2013-02-10 16:55:00,
2013-02-10 18:10:00,54.0,42.0,29.90,NE,34,11.0,24.0,64,0.00,,,0.00,weatherlink.com 1.10,2013-02-10 17:10:00,
2013-02-10 18:25:00,53.5,45.0,29.89,NNE,25,12.0,23.0,72,0.00,,,0.00,weatherlink.com 1.10,2013-02-10 17:25:00,
2013-02-10 18:40:00,53.3,45.0,29.89,NE,37,12.0,19.0,74,0.00,,,0.00,weatherlink.com 1.10,2013-02-10 17:40:00,
2013-02-10 18:55:00,53.3,46.0,29.88,NNE,26,14.0,25.0,75,0.00,,,0.00,weatherlink.com 1.10,2013-02-10 17:55:00,
2013-02-10 19:10:00,53.3,46.0,29.88,NE,50,12.0,21.0,77,0.00,,,0.00,weatherlink.com 1.10,2013-02-10 18:10:00,
2013-02-10 19:25:00,53.3,47.0,29.87,NE,46,15.0,22.0,79,0.00,,,0.00,weatherlink.com 1.10,2013-02-10 18:25:00,
2013-02-10 19:40:00,53.4,48.0,29.86,NNE,32,20.0,23.0,81,0.00,,,0.00,weatherlink.com 1.10,2013-02-10 18:40:00,
2013-02-10 19:55:00,53.4,48.0,29.86,NE,41,18.0,26.0,82,0.00,,,0.00,weatherlink.com 1.10,2013-02-10 18:55:00,
2013-02-10 20:10:00,53.4,48.0,29.85,NE,37,15.0,25.0,82,0.00,,,0.00,weatherlink.com 1.10,2013-02-10 19:10:00,
2013-02-10 20:25:00,53.3,48.0,29.84,NNE,33,17.0,22.0,83,0.00,,,0.00,weatherlink.com 1.10,2013-02-10 19:25:00,
2013-02-10 20:40:00,53.5,49.0,29.84,NNE,27,14.0,27.0,83,0.00,,,0.00,weatherlink.com 1.10,2013-02-10 19:40:00,
2013-02-10 20:55:00,53.4,48.0,29.83,NE,50,19.0,23.0,83,0.00,,,0.00,weatherlink.com 1.10,2013-02-10 19:55:00,
2013-02-10 21:10:00,53.6,48.0,29.82,ENE,61,16.0,27.0,82,0.00,,,0.00,weatherlink.com 1.10,2013-02-10 20:10:00,
2013-02-10 21:25:00,53.6,48.0,29.82,NE,46,13.0,24.0,81,0.00,,,0.00,weatherlink.com 1.10,2013-02-10 20:25:00,
2013-02-10 21:40:00,53.6,48.0,29.81,ENE,60,19.0,22.0,82,0.00,,,0.00,weatherlink.com 1.10,2013-02-10 20:40:00,
2013-02-10 21:55:00,53.6,49.0,29.80,ENE,60,17.0,19.0,83,0.00,,,0.00,weatherlink.com 1.10,2013-02-10 20:55:00,
2013-02-10 22:10:00,53.6,49.0,29.79,NE,36,10.0,18.0,84,0.00,,,0.00,weatherlink.com 1.10,2013-02-10 21:10:00,
2013-02-10 22:25:00,53.5,49.0,29.78,NE,34,7.0,18.0,84,0.00,,,0.00,weatherlink.com 1.10,2013-02-10 21:25:00,
2013-02-10 22:41:00,53.6,49.0,29.77,NE,44,15.0,28.0,84,0.00,,,0.00,weatherlink.com 1.10,2013-02-10 21:41:00,
2013-02-10 22:56:00,53.8,49.0,29.76,NE,37,18.0,31.0,84,0.00,,,0.00,weatherlink.com 1.10,2013-02-10 21:56:00,
2013-02-10 23:11:00,53.9,49.0,29.75,NE,44,23.0,30.0,84,0.00,,,0.00,weatherlink.com 1.10,2013-02-10 22:11:00,
2013-02-10 23:26:00,53.8,49.0,29.75,NNE,20,18.0,28.0,85,0.00,,,0.00,weatherlink.com 1.10,2013-02-10 22:26:00,
2013-02-10 23:41:00,53.9,50.0,29.74,NE,40,10.0,23.0,85,0.00,,,0.00,weatherlink.com 1.10,2013-02-10 22:41:00,
2013-02-10 23:56:00,53.9,50.0,29.72,ENE,60,19.0,27.0,85,0.00,,,0.00,weatherlink.com 1.10,2013-02-10 22:56:00,